QPF
0.00 0.01 0.01 0.03 0.02 0.02 0.02 0.01 0.01 0.01 0.01 0.01 0.01 0.01 0.01 0.00 0.00 0.00 0.00 0.00 0.00 0.00 0.00 0.00 0.00 0.00 0.00 0.00 0.00 0.00 0.00 0.00 0.00 0.00 0.00 0.00 0.00 0.00 0.00 0.00 0.00 0.00 0.00 0.00
0.00 0.01 0.02 0.03 0.03 0.03 0.03 0.02 0.02 0.02 0.02 0.01 0.01 0.01 0.01 0.01 0.00 0.00 0.00 0.00 0.00 0.00 0.00 0.00 0.00 0.00 0.00 0.00 0.00 0.00 0.00 0.00 0.00 0.00 0.00 0.00 0.00 0.00 0.00 0.00 0.00 0.00 0.00 0.00
0.00 0.01 0.01 0.03 0.03 0.03 0.03 0.03 0.03 0.03 0.03 0.02 0.02 0.02 0.01 0.01 0.00 0.00 0.00 0.00 0.00 0.00 0.00 0.00 0.00 0.00 0.00 0.00 0.00 0.00 0.00 0.00 0.00 0.00 0.00 0.00 0.00 0.00 0.00 0.00 0.00 0.00 0.00 0.00
0.01 0.01 0.01 0.02 0.03 0.03 0.03 0.03 0.05 0.06 0.04 0.03 0.03 0.03 0.02 0.01 0.01 0.00 0.00 0.00 0.00 0.00 0.00 0.00 0.00 0.00 0.00 0.00 0.00 0.00 0.00 0.00 0.00 0.00 0.00 0.00 0.00 0.00 0.00 0.00 0.00 0.00 0.00 0.00
0.02 0.01 0.01 0.01 0.03 0.04 0.07 0.06 0.05 0.06 0.06 0.04 0.04 0.02 0.01 0.01 0.01 0.01 0.00 0.00 0.00 0.00 0.00 0.00 0.00 0.00 0.00 0.00 0.00 0.00 0.00 0.00 0.00 0.00 0.00 0.00 0.00 0.00 0.00 0.00 0.00 0.00 0.00 0.00
0.02 0.02 0.02 0.03 0.04 0.04 0.05 0.06 0.08 0.10 0.10 0.06 0.04 0.04 0.04 0.04 0.02 0.01 0.01 0.01 0.00 0.01 0.01 0.01 0.01 0.00 0.00 0.01 0.01 0.01 0.01 0.01 0.01 0.01 0.00 0.00 0.00 0.00 0.00 0.00 0.00 0.00 0.00 0.00
0.05 0.05 0.05 0.06 0.07 0.07 0.11 0.14 0.20 0.23 0.18 0.11 0.06 0.05 0.04 0.03 0.03 0.02 0.02 0.01 0.01 0.01 0.00 0.00 0.00 0.00 0.01 0.01 0.02 0.02 0.02 0.01 0.01 0.01 0.01 0.00 0.00 0.00 0.00 0.00 0.01 0.00 0.00 0.00
0.12 0.14 0.13 0.11 0.12 0.15 0.20 0.20 0.21 0.16 0.11 0.07 0.04 0.03 0.02 0.01 0.01 0.01 0.01 0.01 0.01 0.01 0.01 0.01 0.01 0.01 0.01 0.02 0.02 0.03 0.02 0.01 0.01 0.01 0.01 0.01 0.01 0.01 0.01 0.01 0.01 0.01 0.01 0.00
0.12 0.14 0.14 0.13 0.11 0.10 0.08 0.07 0.06 0.03 0.02 0.02 0.01 0.01 0.01 0.00 0.00 0.00 0.00 0.01 0.01 0.01 0.01 0.01 0.02 0.02 0.02 0.03 0.03 0.03 0.03 0.02 0.02 0.02 0.02 0.02 0.02 0.01 0.01 0.01 0.01 0.01 0.01 0.01
0.07 0.12 0.13 0.12 0.08 0.05 0.04 0.03 0.02 0.01 0.01 0.01 0.00 0.00 0.00 0.00 0.00 0.00 0.00 0.01 0.01 0.01 0.01 0.01 0.02 0.02 0.02 0.03 0.04 0.04 0.04 0.04 0.04 0.04 0.03 0.02 0.02 0.01 0.01 0.01 0.01 0.02 0.03 0.03
0.10 0.15 0.16 0.13 0.09 0.07 0.04 0.02 0.01 0.00 0.00 0.00 0.00 0.00 0.00 0.00 0.00 0.00 0.00 0.01 0.01 0.01 0.02 0.02 0.02 0.03 0.03 0.03 0.03 0.04 0.05 0.05 0.04 0.04 0.03 0.02 0.02 0.02 0.02 0.01 0.02 0.03 0.04 0.04
0.09 0.13 0.16 0.13 0.08 0.05 0.03 0.01 0.00 0.00 0.00 0.00 0.00 0.00 0.00 0.00 0.00 0.00 0.00 0.00 0.01 0.01 0.01 0.01 0.02 0.03 0.02 0.02 0.02 0.04 0.05 0.05 0.04 0.03 0.03 0.02 0.02 0.02 0.02 0.03 0.03 0.05 0.05 0.05
0.05 0.10 0.12 0.09 0.05 0.03 0.01 0.00 0.00 0.00 0.00 0.00 0.00 0.00 0.00 0.00 0.00 0.00 0.00 0.00 0.00 0.00 0.00 0.00 0.00 0.00 0.01 0.01 0.02 0.03 0.04 0.03 0.03 0.02 0.02 0.02 0.02 0.03 0.02 0.03 0.03 0.04 0.04 0.04
0.07 0.07 0.06 0.04 0.02 0.01 0.00 0.00 0.00 0.00 0.00 0.00 0.00 0.00 0.00 0.00 0.00 0.00 0.00 0.00 0.00 0.00 0.00 0.00 0.00 0.00 0.00 0.00 0.01 0.01 0.01 0.01 0.02 0.02 0.02 0.02 0.03 0.03 0.04 0.04 0.03 0.03 0.02 0.03
0.06 0.05 0.04 0.02 0.01 0.00 0.00 0.00 0.00 0.00 0.00 0.00 0.00 0.00 0.00 0.00 0.00 0.00 0.00 0.00 0.00 0.00 0.00 0.00 0.00 0.00 0.00 0.00 0.00 0.00 0.01 0.01 0.01 0.01 0.02 0.02 0.02 0.02 0.03 0.03 0.03 0.03 0.03 0.04
0.06 0.04 0.02 0.01 0.01 0.00 0.00 0.00 0.00 0.00 0.00 0.00 0.00 0.00 0.00 0.00 0.00 0.00 0.00 0.00 0.00 0.00 0.00 0.00 0.00 0.00 0.00 0.00 0.00 0.00 0.00 0.00 0.01 0.01 0.01 0.01 0.01 0.02 0.03 0.03 0.03 0.03 0.04 0.05
0.03 0.02 0.01 0.01 0.00 0.00 0.00 0.00 0.00 0.00 0.00 0.00 0.00 0.00 0.00 0.00 0.00 0.00 0.00 0.00 0.00 0.00 0.00 0.00 0.00 0.00 0.00 0.00 0.00 0.00 0.00 0.00 0.00 0.01 0.01 0.01 0.01 0.02 0.02 0.03 0.03 0.03 0.04 0.06
0.01 0.01 0.01 0.00 0.00 0.00 0.00 0.00 0.00 0.00 0.00 0.00 0.00 0.00 0.00 0.00 0.00 0.00 0.00 0.00 0.00 0.00 0.00 0.00 0.00 0.00 0.00 0.00 0.00 0.00 0.00 0.00 0.01 0.01 0.01 0.01 0.01 0.02 0.02 0.03 0.03 0.04 0.05 0.07
0.01 0.00 0.00 0.00 0.00 0.00 0.00 0.00 0.00 0.00 0.00 0.00 0.00 0.00 0.00 0.00 0.00 0.00 0.00 0.00 0.00 0.00 0.00 0.00 0.00 0.00 0.00 0.00 0.00 0.00 0.00 0.00 0.00 0.00 0.00 0.01 0.01 0.02 0.03 0.04 0.06 0.07 0.09 0.10
0.00 0.00 0.00 0.00 0.00 0.00 0.00 0.00 0.00 0.00 0.00 0.00 0.00 0.00 0.00 0.00 0.00 0.00 0.00 0.00 0.00 0.00 0.00 0.00 0.00 0.00 0.00 0.00 0.00 0.00 0.00 0.00 0.00 0.00 0.01 0.01 0.02 0.03 0.04 0.06 0.08 0.10 0.11 0.11
0.00 0.00 0.00 0.00 0.00 0.00 0.00 0.00 0.00 0.00 0.00 0.00 0.00 0.00 0.00 0.00 0.00 0.00 0.00 0.00 0.00 0.00 0.00 0.00 0.00 0.00 0.00 0.00 0.00 0.00 0.00 0.00 0.01 0.01 0.01 0.02 0.03 0.04 0.06 0.08 0.11 0.12 0.13 0.12
0.00 0.00 0.00 0.00 0.00 0.00 0.00 0.00 0.00 0.00 0.00 0.00 0.00 0.00 0.00 0.00 0.00 0.00 0.00 0.00 0.00 0.00 0.00 0.00 0.00 0.00 0.00 0.00 0.00 0.00 0.00 0.01 0.01 0.01 0.02 0.03 0.06 0.08 0.08 0.10 0.13 0.14 0.14 0.14
0.00 0.00 0.00 0.00 0.00 0.00 0.00 0.00 0.00 0.00 0.00 0.00 0.00 0.00 0.00 0.00 0.00 0.00 0.00 0.00 0.00 0.01 0.00 0.00 0.00 0.00 0.00 0.00 0.00 0.00 0.01 0.01 0.01 0.02 0.03 0.04 0.07 0.09 0.13 0.15 0.16 0.17 0.18 0.17
0.00 0.00 0.00 0.00 0.00 0.00 0.00 0.00 0.00 0.00 0.00 0.00 0.00 0.00 0.00 0.00 0.01 0.00 0.00 0.00 0.01 0.01 0.00 0.00 0.00 0.00 0.00 0.00 0.01 0.01 0.02 0.02 0.02 0.02 0.03 0.05 0.09 0.12 0.17 0.19 0.19 0.17 0.16 0.14
0.00 0.00 0.00 0.00 0.00 0.00 0.00 0.00 0.00 0.00 0.00 0.00 0.00 0.01 0.01 0.01 0.01 0.01 0.00 0.00 0.01 0.01 0.00 0.00 0.00 0.00 0.01 0.01 0.02 0.02 0.02 0.02 0.02 0.03 0.03 0.05 0.08 0.13 0.17 0.19 0.18 0.15 0.12 0.11
0.00 0.00 0.00 0.00 0.00 0.00 0.00 0.00 0.00 0.00 0.01 0.01 0.01 0.02 0.01 0.01 0.01 0.01 0.01 0.01 0.00 0.00 0.00 0.00 0.01 0.01 0.01 0.01 0.01 0.01 0.02 0.02 0.03 0.03 0.04 0.05 0.09 0.14 0.15 0.12 0.10 0.10 0.09 0.08
0.00 0.00 0.00 0.00 0.00 0.00 0.00 0.00 0.00 0.01 0.01 0.01 0.01 0.01 0.01 0.01 0.01 0.01 0.01 0.01 0.00 0.00 0.00 0.01 0.01 0.01 0.01 0.01 0.01 0.01 0.01 0.02 0.02 0.03 0.04 0.07 0.10 0.12 0.10 0.08 0.07 0.07 0.06 0.06
MSLP
1012.15 1012.73 1013.33 1013.90 1014.38 1014.69 1014.77 1014.59 1014.11 1013.38 1012.45 1011.42 1010.40 1009.49 1008.77 1008.32 1008.15 1008.23 1008.52 1008.95 1009.46 1009.97 1010.44 1010.84 1011.18 1011.48 1011.76 1012.03 1012.33 1012.64 1012.97 1013.29 1013.59 1013.84 1014.04 1014.18 1014.28 1014.36 1014.42 1014.48 1014.57 1014.67 1014.79 1014.91
1012.42 1012.97 1013.48 1013.92 1014.24 1014.38 1014.33 1014.06 1013.56 1012.88 1012.07 1011.19 1010.34 1009.59 1009.00 1008.60 1008.41 1008.42 1008.58 1008.84 1009.16 1009.49 1009.81 1010.11 1010.39 1010.65 1010.93 1011.23 1011.56 1011.91 1012.26 1012.61 1012.93 1013.21 1013.44 1013.62 1013.76 1013.88 1013.97 1014.07 1014.17 1014.28 1014.39 1014.49
1012.94 1013.44 1013.85 1014.15 1014.31 1014.32 1014.16 1013.83 1013.34 1012.73 1012.03 1011.31 1010.62 1010.00 1009.49 1009.12 1008.88 1008.77 1008.75 1008.80 1008.89 1009.01 1009.14 1009.28 1009.45 1009.66 1009.91 1010.22 1010.57 1010.96 1011.36 1011.76 1012.13 1012.46 1012.75 1012.99 1013.20 1013.37 1013.52 1013.65 1013.78 1013.89 1013.99 1014.06
1013.66 1014.06 1014.34 1014.50 1014.53 1014.42 1014.17 1013.80 1013.34 1012.79 1012.21 1011.63 1011.06 1010.55 1010.11 1009.74 1009.44 1009.19 1008.99 1008.83 1008.69 1008.58 1008.51 1008.48 1008.53 1008.65 1008.86 1009.15 1009.52 1009.93 1010.38 1010.83 1011.26 1011.66 1012.02 1012.33 1012.60 1012.84 1013.04 1013.21 1013.35 1013.46 1013.53 1013.57
1014.39 1014.66 1014.80 1014.82 1014.72 1014.50 1014.19 1013.80 1013.37 1012.89 1012.42 1011.95 1011.50 1011.08 1010.69 1010.33 1009.97 1009.62 1009.27 1008.93 1008.59 1008.29 1008.04 1007.87 1007.80 1007.83 1007.98 1008.24 1008.60 1009.03 1009.50 1009.98 1010.46 1010.91 1011.32 1011.69 1012.01 1012.29 1012.52 1012.71 1012.85 1012.95 1012.99 1012.99
1014.92 1015.04 1015.04 1014.93 1014.71 1014.42 1014.07 1013.68 1013.28 1012.88 1012.50 1012.13 1011.79 1011.47 1011.14 1010.79 1010.42 1010.02 1009.59 1009.13 1008.67 1008.24 1007.87 1007.58 1007.41 1007.37 1007.46 1007.67 1008.00 1008.40 1008.86 1009.35 1009.83 1010.30 1010.73 1011.12 1011.46 1011.75 1011.99 1012.17 1012.28 1012.34 1012.34 1012.28
1015.05 1015.03 1014.91 1014.70 1014.41 1014.07 1013.71 1013.35 1013.00 1012.67 1012.38 1012.13 1011.89 1011.65 1011.41 1011.12 1010.79 1010.40 1009.95 1009.47 1008.97 1008.49 1008.06 1007.71 1007.48 1007.37 1007.40 1007.55 1007.82 1008.17 1008.59 1009.03 1009.48 1009.91 1010.32 1010.68 1010.99 1011.25 1011.44 1011.57 1011.64 1011.64 1011.57 1011.45
1014.69 1014.57 1014.36 1014.10 1013.79 1013.46 1013.13 1012.81 1012.53 1012.30 1012.10 1011.95 1011.82 1011.69 1011.54 1011.35 1011.10 1010.78 1010.40 1009.96 1009.50 1009.04 1008.61 1008.25 1007.99 1007.84 1007.81 1007.89 1008.08 1008.35 1008.68 1009.04 1009.41 1009.77 1010.10 1010.38 1010.62 1010.80 1010.92 1010.96 1010.94 1010.86 1010.71 1010.53
1013.87 1013.69 1013.46 1013.21 1012.93 1012.66 1012.40 1012.18 1011.99 1011.85 1011.76 1011.71 1011.68 1011.66 1011.61 1011.53 1011.40 1011.20 1010.93 1010.60 1010.23 1009.84 1009.46 1009.13 1008.86 1008.68 1008.59 1008.60 1008.69 1008.86 1009.07 1009.32 1009.58 1009.82 1010.04 1010.22 1010.35 1010.42 1010.42 1010.36 1010.23 1010.05 1009.82 1009.57
1012.73 1012.56 1012.38 1012.19 1012.01 1011.85 1011.71 1011.59 1011.52 1011.49 1011.49 1011.54 1011.60 1011.67 1011.73 1011.76 1011.75 1011.67 1011.53 1011.32 1011.07 1010.77 1010.47 1010.18 1009.92 1009.71 1009.57 1009.50 1009.49 1009.54 1009.64 1009.76 1009.89 1010.01 1010.10 1010.16 1010.16 1010.10 1009.97 1009.79 1009.54 1009.26 1008.94 1008.63
1011.49 1011.39 1011.30 1011.24 1011.20 1011.18 1011.19 1011.21 1011.26 1011.33 1011.43 1011.54 1011.68 1011.82 1011.96 1012.07 1012.15 1012.18 1012.15 1012.06 1011.91 1011.70 1011.46 1011.21 1010.96 1010.73 1010.53 1010.39 1010.29 1010.23 1010.21 1010.22 1010.23 1010.23 1010.20 1010.13 1010.01 1009.82 1009.57 1009.26 1008.91 1008.52 1008.12 1007.75
1010.38 1010.39 1010.44 1010.53 1010.66 1010.81 1010.97 1011.13 1011.29 1011.45 1011.62 1011.78 1011.95 1012.12 1012.30 1012.45 1012.59 1012.68 1012.72 1012.70 1012.61 1012.47 1012.27 1012.04 1011.79 1011.53 1011.29 1011.08 1010.91 1010.77 1010.66 1010.57 1010.49 1010.39 1010.26 1010.09 1009.86 1009.56 1009.20 1008.79 1008.33 1007.86 1007.38 1006.95
1009.57 1009.70 1009.90 1010.16 1010.45 1010.76 1011.06 1011.35 1011.60 1011.83 1012.03 1012.21 1012.38 1012.54 1012.71 1012.86 1012.99 1013.09 1013.15 1013.16 1013.10 1012.97 1012.79 1012.56 1012.29 1012.02 1011.74 1011.48 1011.26 1011.06 1010.89 1010.75 1010.60 1010.44 1010.24 1009.99 1009.68 1009.29 1008.84 1008.34 1007.79 1007.24 1006.70 1006.22
1009.15 1009.40 1009.73 1010.12 1010.55 1010.99 1011.40 1011.77 1012.09 1012.35 1012.56 1012.73 1012.87 1012.99 1013.10 1013.21 1013.30 1013.37 1013.40 1013.38 1013.31 1013.18 1012.98 1012.74 1012.46 1012.16 1011.87 1011.59 1011.33 1011.11 1010.92 1010.74 1010.56 1010.36 1010.11 1009.81 1009.43 1008.97 1008.45 1007.87 1007.25 1006.63 1006.04 1005.52
1009.09 1009.43 1009.86 1010.35 1010.87 1011.39 1011.87 1012.29 1012.63 1012.89 1013.08 1013.21 1013.30 1013.36 1013.40 1013.43 1013.46 1013.46 1013.44 1013.38 1013.28 1013.12 1012.90 1012.65 1012.36 1012.05 1011.75 1011.47 1011.21 1010.98 1010.78 1010.59 1010.40 1010.17 1009.89 1009.54 1009.10 1008.58 1007.99 1007.34 1006.65 1005.98 1005.35 1004.79
1009.33 1009.71 1010.19 1010.72 1011.28 1011.83 1012.33 1012.75 1013.09 1013.33 1013.48 1013.56 1013.58 1013.57 1013.54 1013.49 1013.45 1013.39 1013.31 1013.20 1013.06 1012.88 1012.65 1012.39 1012.10 1011.80 1011.52 1011.25 1011.00 1010.79 1010.59 1010.39 1010.18 1009.92 1009.60 1009.19 1008.69 1008.10 1007.43 1006.71 1005.96 1005.24 1004.56 1003.99
1009.74 1010.13 1010.60 1011.13 1011.67 1012.20 1012.68 1013.07 1013.37 1013.57 1013.68 1013.70 1013.67 1013.59 1013.50 1013.39 1013.29 1013.18 1013.06 1012.92 1012.76 1012.57 1012.35 1012.10 1011.84 1011.57 1011.31 1011.06 1010.83 1010.63 1010.42 1010.21 1009.96 1009.66 1009.27 1008.79 1008.21 1007.53 1006.78 1005.98 1005.17 1004.39 1003.68 1003.09
1010.24 1010.59 1011.01 1011.49 1011.98 1012.46 1012.87 1013.21 1013.46 1013.61 1013.66 1013.64 1013.56 1013.44 1013.30 1013.16 1013.03 1012.90 1012.76 1012.63 1012.48 1012.30 1012.11 1011.90 1011.68 1011.45 1011.23 1011.01 1010.80 1010.59 1010.36 1010.11 1009.80 1009.42 1008.95 1008.37 1007.68 1006.91 1006.06 1005.18 1004.30 1003.47 1002.73 1002.13
1010.73 1011.02 1011.37 1011.77 1012.19 1012.58 1012.92 1013.19 1013.37 1013.46 1013.47 1013.41 1013.29 1013.15 1013.00 1012.86 1012.72 1012.60 1012.49 1012.38 1012.27 1012.15 1012.01 1011.86 1011.69 1011.51 1011.33 1011.13 1010.93 1010.70 1010.43 1010.12 1009.73 1009.25 1008.66 1007.96 1007.16 1006.28 1005.33 1004.37 1003.42 1002.55 1001.80 1001.20
1011.18 1011.40 1011.68 1011.99 1012.31 1012.61 1012.86 1013.05 1013.17 1013.20 1013.17 1013.08 1012.95 1012.80 1012.65 1012.52 1012.41 1012.32 1012.26 1012.20 1012.16 1012.10 1012.04 1011.96 1011.86 1011.74 1011.59 1011.41 1011.20 1010.94 1010.61 1010.22 1009.73 1009.14 1008.43 1007.62 1006.70 1005.71 1004.68 1003.65 1002.66 1001.76 1001.00 1000.41
1011.58 1011.73 1011.93 1012.16 1012.38 1012.60 1012.76 1012.87 1012.92 1012.90 1012.83 1012.71 1012.57 1012.42 1012.29 1012.19 1012.12 1012.08 1012.07 1012.09 1012.12 1012.15 1012.16 1012.16 1012.12 1012.05 1011.94 1011.77 1011.54 1011.24 1010.86 1010.38 1009.79 1009.09 1008.28 1007.36 1006.35 1005.29 1004.20 1003.13 1002.12 1001.22 1000.47 999.90
1011.93 1012.02 1012.15 1012.30 1012.44 1012.57 1012.65 1012.69 1012.67 1012.59 1012.48 1012.34 1012.19 1012.05 1011.94 1011.86 1011.84 1011.86 1011.92 1012.01 1012.11 1012.22 1012.32 1012.38 1012.41 1012.38 1012.29 1012.13 1011.88 1011.54 1011.10 1010.55 1009.89 1009.11 1008.22 1007.23 1006.18 1005.08 1003.97 1002.90 1001.91 1001.03 1000.31 999.77
1012.22 1012.26 1012.33 1012.41 1012.48 1012.53 1012.54 1012.50 1012.42 1012.30 1012.14 1011.98 1011.82 1011.68 1011.59 1011.55 1011.56 1011.64 1011.76 1011.91 1012.09 1012.27 1012.44 1012.57 1012.64 1012.65 1012.59 1012.43 1012.16 1011.80 1011.32 1010.72 1010.01 1009.19 1008.26 1007.26 1006.20 1005.12 1004.04 1003.01 1002.07 1001.25 1000.58 1000.08
1012.45 1012.46 1012.47 1012.50 1012.50 1012.48 1012.42 1012.32 1012.18 1012.01 1011.82 1011.63 1011.47 1011.34 1011.26 1011.25 1011.31 1011.42 1011.60 1011.81 1012.05 1012.29 1012.51 1012.69 1012.80 1012.84 1012.79 1012.63 1012.37 1011.99 1011.49 1010.87 1010.15 1009.33 1008.42 1007.45 1006.44 1005.42 1004.42 1003.47 1002.62 1001.87 1001.26 1000.79
1012.63 1012.59 1012.57 1012.54 1012.48 1012.40 1012.28 1012.13 1011.94 1011.74 1011.53 1011.33 1011.16 1011.04 1010.99 1011.01 1011.10 1011.26 1011.47 1011.73 1012.02 1012.30 1012.56 1012.77 1012.91 1012.97 1012.93 1012.78 1012.51 1012.13 1011.63 1011.03 1010.33 1009.55 1008.69 1007.79 1006.87 1005.95 1005.06 1004.22 1003.46 1002.80 1002.26 1001.83
1012.75 1012.68 1012.61 1012.53 1012.43 1012.30 1012.14 1011.94 1011.73 1011.51 1011.29 1011.09 1010.94 1010.85 1010.82 1010.87 1011.00 1011.19 1011.44 1011.74 1012.05 1012.36 1012.63 1012.86 1013.01 1013.08 1013.04 1012.90 1012.64 1012.27 1011.79 1011.22 1010.56 1009.84 1009.06 1008.26 1007.45 1006.64 1005.88 1005.16 1004.51 1003.94 1003.45 1003.05
1012.84 1012.74 1012.63 1012.51 1012.37 1012.20 1012.01 1011.80 1011.58 1011.37 1011.17 1011.00 1010.88 1010.82 1010.84 1010.92 1011.08 1011.31 1011.59 1011.90 1012.22 1012.54 1012.81 1013.04 1013.19 1013.25 1013.21 1013.06 1012.81 1012.45 1012.00 1011.47 1010.87 1010.22 1009.53 1008.82 1008.12 1007.43 1006.77 1006.16 1005.61 1005.11 1004.67 1004.29
Thickness
5746 5750 5748 5744 5746 5746 5737 5728 5719 5727 5734 5747 5757 5764 5769 5771 5769 5767 5764 5762 5761 5758 5755 5753 5751 5748 5745 5743 5739 5736 5729 5724 5720 5716 5711 5706 5701 5697 5693 5688 5684 5679 5674 5669
5741 5749 5746 5743 5747 5748 5744 5741 5736 5734 5736 5754 5762 5764 5764 5765 5765 5763 5761 5761 5761 5758 5755 5752 5750 5747 5745 5741 5739 5734 5728 5724 5720 5714 5708 5703 5699 5694 5689 5684 5680 5675 5670 5666
5721 5736 5735 5724 5737 5740 5734 5733 5733 5725 5731 5747 5751 5751 5752 5756 5761 5761 5761 5761 5759 5758 5757 5755 5753 5751 5745 5743 5738 5732 5727 5723 5717 5711 5706 5701 5697 5691 5685 5680 5676 5671 5667 5662
5712 5718 5707 5725 5746 5745 5731 5724 5728 5729 5735 5743 5741 5743 5747 5751 5753 5755 5756 5756 5756 5755 5755 5755 5753 5750 5747 5741 5734 5729 5723 5719 5714 5709 5704 5698 5692 5687 5683 5677 5672 5667 5663 5658
5703 5699 5707 5726 5735 5734 5724 5712 5721 5722 5729 5736 5741 5741 5737 5743 5745 5747 5750 5750 5751 5752 5752 5750 5747 5745 5740 5735 5730 5724 5719 5715 5712 5707 5701 5694 5688 5684 5679 5673 5668 5663 5659 5654
5699 5694 5693 5716 5734 5740 5726 5703 5717 5720 5722 5726 5730 5714 5713 5728 5734 5737 5740 5742 5742 5743 5743 5741 5741 5739 5733 5727 5722 5719 5718 5714 5710 5704 5697 5691 5686 5681 5675 5669 5664 5659 5654 5649
5692 5688 5699 5720 5730 5731 5702 5702 5714 5717 5718 5719 5712 5708 5713 5721 5722 5724 5728 5730 5731 5731 5729 5729 5730 5728 5722 5718 5715 5716 5713 5709 5703 5698 5692 5687 5681 5675 5669 5663 5658 5653 5648 5644
5685 5681 5690 5721 5718 5712 5709 5714 5714 5712 5712 5711 5709 5709 5709 5710 5710 5711 5713 5715 5716 5715 5713 5715 5715 5712 5708 5705 5707 5706 5702 5697 5693 5689 5684 5680 5672 5667 5661 5655 5649 5645 5640 5637
5693 5694 5710 5715 5714 5716 5715 5710 5709 5708 5707 5706 5703 5700 5698 5697 5697 5698 5699 5699 5699 5698 5697 5697 5697 5696 5691 5690 5691 5689 5686 5682 5679 5675 5671 5666 5661 5656 5651 5646 5640 5637 5632 5630
5693 5699 5704 5707 5709 5710 5710 5707 5705 5702 5700 5698 5693 5690 5687 5686 5685 5685 5685 5685 5684 5683 5681 5679 5679 5678 5675 5675 5674 5672 5667 5664 5661 5658 5655 5652 5649 5645 5640 5636 5632 5628 5625 5622
5688 5692 5694 5697 5700 5701 5702 5700 5697 5694 5692 5689 5685 5680 5678 5675 5674 5673 5672 5671 5670 5667 5665 5663 5663 5662 5661 5659 5658 5654 5650 5647 5645 5642 5639 5637 5635 5633 5630 5629 5625 5621 5619 5616
5692 5696 5690 5689 5695 5697 5693 5690 5689 5685 5681 5679 5676 5671 5668 5664 5662 5661 5659 5657 5655 5653 5651 5649 5648 5646 5645 5644 5642 5637 5633 5630 5628 5626 5624 5622 5620 5621 5621 5618 5616 5613 5610 5607
5707 5700 5694 5692 5692 5690 5684 5680 5679 5675 5671 5666 5664 5661 5656 5652 5650 5648 5646 5643 5641 5638 5636 5634 5632 5631 5630 5628 5626 5622 5617 5615 5612 5610 5608 5606 5605 5603 5604 5607 5605 5603 5600 5597
5703 5695 5684 5682 5680 5679 5675 5671 5667 5663 5659 5655 5651 5648 5644 5640 5637 5635 5632 5630 5629 5626 5623 5621 5618 5616 5615 5613 5610 5606 5603 5601 5598 5595 5592 5590 5588 5587 5586 5586 5587 5588 5588 5586
5687 5683 5675 5672 5669 5665 5661 5657 5651 5646 5643 5640 5638 5634 5631 5627 5624 5622 5621 5619 5616 5613 5610 5607 5604 5602 5600 5598 5594 5591 5587 5584 5582 5579 5576 5574 5572 5570 5569 5568 5567 5568 5569 5570
5671 5668 5665 5659 5654 5650 5646 5642 5636 5632 5630 5627 5624 5621 5619 5617 5614 5611 5608 5606 5602 5598 5596 5593 5590 5588 5585 5582 5578 5574 5570 5569 5567 5562 5559 5556 5553 5551 5550 5549 5548 5549 5550 5551
5655 5648 5646 5643 5640 5638 5635 5631 5627 5623 5619 5616 5613 5611 5608 5605 5601 5598 5596 5593 5590 5586 5583 5579 5576 5574 5570 5565 5560 5556 5552 5549 5548 5543 5539 5536 5533 5531 5529 5528 5529 5530 5532 5534
5645 5640 5638 5635 5631 5628 5624 5621 5618 5614 5610 5608 5605 5601 5597 5592 5588 5586 5584 5581 5577 5573 5569 5566 5562 5557 5552 5547 5542 5537 5533 5529 5526 5523 5520 5517 5515 5512 5511 5510 5511 5513 5516 5519
5635 5631 5628 5626 5622 5618 5613 5609 5606 5603 5601 5598 5594 5589 5586 5582 5579 5576 5572 5567 5562 5557 5554 5551 5546 5540 5534 5529 5526 5520 5516 5513 5510 5506 5503 5501 5499 5497 5495 5495 5497 5499 5502 5506
5623 5620 5617 5614 5610 5606 5601 5599 5596 5592 5590 5587 5583 5578 5575 5572 5569 5565 5559 5552 5548 5543 5539 5534 5529 5523 5518 5513 5510 5504 5500 5497 5493 5490 5487 5485 5483 5483 5482 5484 5486 5488 5492 5496
5608 5605 5602 5599 5596 5594 5591 5588 5585 5581 5579 5576 5571 5567 5564 5561 5558 5552 5545 5539 5535 5531 5525 5520 5513 5507 5502 5498 5494 5489 5485 5481 5478 5475 5473 5471 5470 5471 5473 5475 5478 5481 5485 5490
5592 5590 5588 5585 5583 5580 5578 5576 5573 5570 5567 5564 5561 5558 5553 5548 5543 5538 5532 5525 5521 5516 5510 5503 5497 5493 5488 5484 5479 5475 5471 5468 5464 5461 5459 5458 5459 5460 5463 5466 5470 5474 5478 5483
5577 5576 5574 5572 5570 5567 5566 5564 5561 5558 5555 5552 5548 5544 5539 5535 5529 5523 5517 5512 5508 5502 5495 5489 5484 5481 5477 5472 5467 5463 5459 5456 5453 5450 5449 5450 5451 5452 5455 5459 5464 5469 5473 5477
5566 5564 5562 5560 5558 5555 5552 5550 5548 5545 5542 5539 5536 5532 5527 5521 5515 5510 5505 5500 5495 5489 5482 5476 5473 5469 5465 5460 5456 5452 5449 5446 5444 5442 5442 5443 5444 5447 5450 5454 5458 5463 5467 5472
5554 5552 5550 5547 5543 5540 5538 5536 5534 5531 5528 5525 5522 5518 5514 5509 5503 5497 5492 5487 5482 5477 5471 5466 5462 5459 5454 5450 5447 5443 5441 5438 5436 5436 5436 5437 5439 5441 5444 5448 5452 5457 5461 5465
5540 5537 5535 5533 5530 5528 5525 5522 5519 5516 5513 5510 5506 5503 5499 5495 5490 5485 5480 5475 5470 5465 5460 5455 5452 5448 5444 5441 5438 5435 5433 5432 5431 5431 5431 5432 5434 5437 5440 5443 5447 5451 5455 5459
5525 5523 5521 5519 5517 5515 5513 5509 5506 5503 5500 5497 5493 5489 5486 5482 5478 5473 5469 5463 5459 5454 5450 5446 5442 5438 5435 5432 5430 5428 5426 5425 5425 5425 5426 5428 5430 5433 5435 5439 5443 5447 5451 5455